Weather History for Joplin, MO

Change the Weather History Date:

Sunday, February 3, 2013

  Actual Average Record
Temperature  
Mean Temperature 42 °F 37 °F  
Max Temperature 53 °F 47 °F 74 °F (1962)
Min Temperature 31 °F 26 °F -11 °F (2011)
Degree Days  
Heating Degree Days 23 28  
Month to date heating degree days 92 85  
Since 1 July heating degree days 2445 2634  
Cooling Degree Days 0 0  
Month to date cooling degree days 0 0  
Year to date cooling degree days 1 0  
Moisture  
Dew Point 24 °F    
Average Humidity 51    
Maximum Humidity 75    
Minimum Humidity 26    
Precipitation  
Precipitation 0.00 in 0.07 in 1.82 in (1986)
Month to date precipitation T 0.20  
Year to date precipitation 2.45 2.23  
Snow  
Snow 0.00 in - - ()
Month to date snowfall 0.0  
Snow Depth 0.00 in    
Sea Level Pressure  
Sea Level Pressure 30.17 in    
Wind  
Wind Speed 9 mph (SW)    
Max Wind Speed 16 mph    
Max Gust Speed 24 mph    
Visibility 10 miles    
Events      
T = Trace of Precipitation, MM = Missing Value Source: NWS Daily Summary

Daily Weather History Graph

Daily Weather History Graph

Search for Another Location

Airport:

Trip Planner

Search our weather history database for the weather conditions in past years. The results will help you decide how hot, cold, wet, or windy it might be!

Date:

Astronomy

Feb. 03, 2013 Rise Set
Actual Time 7:18 AM CST 5:45 PM CST
Civil Twilight 6:51 AM CST 6:12 PM CST
Nautical Twilight 6:20 AM CST 6:43 PM CST
Astronomical Twilight 5:50 AM CST 7:14 PM CST
Moon 12:46 AM CST (2/3) 11:23 AM CST (2/3)
Length of Visible Light 11h 21m
Length of Day
10h 26m
Waning Gibbous, 48% of the Moon is Illuminated
Feb 3
Waning Gibbous
Feb 10
New
Feb 17
First Quarter
Feb 25
Full
Mar 4
Last Quarter

Hourly Weather History & Observations

Time (CST) Temp. Windchill Dew Point Humidity Pressure Visibility Wind Dir Wind Speed Gust Speed Precip Events Conditions
12:53 AM 43.0 °F 36.8 °F 28.0 °F 56% 30.19 in 10.0 mi West 11.5 mph - N/A   Clear
1:53 AM 39.0 °F 34.0 °F 28.0 °F 65% 30.21 in 10.0 mi West 6.9 mph - N/A   Clear
2:53 AM 36.0 °F 29.6 °F 27.0 °F 70% 30.22 in 10.0 mi West 8.1 mph - N/A   Clear
3:53 AM 39.0 °F 31.8 °F 27.0 °F 62% 30.22 in 10.0 mi West 11.5 mph - N/A   Clear
4:53 AM 36.0 °F 28.5 °F 27.0 °F 70% 30.25 in 10.0 mi NW 10.4 mph - N/A   Clear
5:53 AM 35.1 °F 29.3 °F 26.1 °F 70% 30.27 in 10.0 mi NNW 6.9 mph - N/A   Clear
6:53 AM 33.1 °F 26.1 °F 25.0 °F 72% 30.28 in 10.0 mi NW 8.1 mph - N/A   Clear
7:53 AM 33.1 °F 27.7 °F 26.1 °F 75% 30.30 in 10.0 mi NW 5.8 mph - N/A   Clear
8:53 AM 37.9 °F 31.5 °F 27.0 °F 65% 30.32 in 10.0 mi NNW 9.2 mph - N/A   Clear
9:53 AM 41.0 °F 34.3 °F 26.1 °F 55% 30.31 in 10.0 mi North 11.5 mph - N/A   Clear
10:53 AM 44.1 °F 38.6 °F 19.9 °F 38% 30.30 in 10.0 mi North 10.4 mph - N/A   Clear
11:53 AM 45.0 °F 43.5 °F 21.9 °F 40% 30.27 in 10.0 mi Variable 3.5 mph - N/A   Clear
12:53 PM 46.9 °F - 21.0 °F 36% 30.23 in 10.0 mi Variable 4.6 mph - N/A   Clear
1:53 PM 50.0 °F - 19.9 °F 31% 30.19 in 10.0 mi SSW 8.1 mph 16.1 mph N/A   Clear
2:53 PM 52.0 °F - 18.0 °F 26% 30.15 in 10.0 mi South 3.5 mph - N/A   Clear
3:53 PM 53.1 °F - 21.0 °F 29% 30.12 in 10.0 mi SSE 8.1 mph - N/A   Clear
4:53 PM 51.1 °F - 21.0 °F 31% 30.09 in 10.0 mi South 8.1 mph - N/A   Clear
5:53 PM 45.0 °F 40.6 °F 21.9 °F 40% 30.09 in 10.0 mi South 8.1 mph - N/A   Clear
6:53 PM 43.0 °F 38.8 °F 23.0 °F 45% 30.07 in 10.0 mi South 6.9 mph - N/A   Clear
7:53 PM 45.0 °F 40.6 °F 24.1 °F 44% 30.06 in 10.0 mi South 8.1 mph - N/A   Clear
8:53 PM 44.1 °F 39.0 °F 24.1 °F 45% 30.03 in 10.0 mi South 9.2 mph - N/A   Clear
9:53 PM 46.0 °F 40.6 °F 24.1 °F 42% 29.99 in 10.0 mi South 11.5 mph - N/A   Clear
10:53 PM 46.0 °F 40.6 °F 24.1 °F 42% 29.96 in 10.0 mi South 11.5 mph - N/A   Clear
11:53 PM 48.9 °F - 23.0 °F 36% 29.95 in 10.0 mi South 12.7 mph - N/A   Clear